This is the latest recevied weather packets stored in our database for station/object K6CQU-13. If no packets are shown the sender has not sent any weather packets the latest 10 day(s).
| Time | Temp. | Humidity | Pressure | Rain* | Wind** | Luminosity | Snow |
|---|---|---|---|---|---|---|---|
| 1787599217 | 25° C | 60% | 1013.9 hPa | 0 mm | - | 823 W/m² | - |
| 1787598917 | 25° C | 61% | 1013.9 hPa | 0 mm | - | 818 W/m² | - |
| 1787598617 | 24.44° C | 62% | 1013.9 hPa | 0 mm | - | 814 W/m² | - |
| 1787598318 | 24.44° C | 61% | 1014 hPa | 0 mm | - | 810 W/m² | - |
| 1787598017 | 24.44° C | 61% | 1014.1 hPa | 0 mm | - | 804 W/m² | - |
| 1787597718 | 24.44° C | 62% | 1014.1 hPa | 0 mm | - | 800 W/m² | - |
| 1787597417 | 24.44° C | 63% | 1014.2 hPa | 0 mm | - | 796 W/m² | - |
| 1787597117 | 24.44° C | 63% | 1014.2 hPa | 0 mm | - | 788 W/m² | - |
| 1787596817 | 23.89° C | 64% | 1014.2 hPa | 0 mm | - | 781 W/m² | - |
| 1787596517 | 23.89° C | 65% | 1014.3 hPa | 0 mm | - | 772 W/m² | - |
| 1787596217 | 23.89° C | 65% | 1014.2 hPa | 0 mm | - | 764 W/m² | - |
| 1787595917 | 23.89° C | 65% | 1014.3 hPa | 0 mm | - | 757 W/m² | - |
| 1787595617 | 23.33° C | 65% | 1014.3 hPa | 0 mm | - | 744 W/m² | - |
| 1787595317 | 23.33° C | 67% | 1014.3 hPa | 0 mm | - | 738 W/m² | - |
| 1787595017 | 23.33° C | 67% | 1014.2 hPa | 0 mm | - | 633 W/m² | - |
| 1787594717 | 23.33° C | 68% | 1014.2 hPa | 0 mm | - | 698 W/m² | - |
| 1787594417 | 22.78° C | 68% | 1014.2 hPa | 0 mm | - | 731 W/m² | - |
| 1787594117 | 22.78° C | 68% | 1014.3 hPa | 0 mm | - | 714 W/m² | - |
| 1787593817 | 22.78° C | 69% | 1014.2 hPa | 0 mm | - | 669 W/m² | - |
| 1787593517 | 22.78° C | 70% | 1014.3 hPa | 0 mm | - | 479 W/m² | - |
| 1787593217 | 22.22° C | 69% | 1014.3 hPa | 0 mm | - | 650 W/m² | - |
| 1787592917 | 22.22° C | 69% | 1014.2 hPa | 0 mm | - | 516 W/m² | - |
| 1787592617 | 22.78° C | 69% | 1014.1 hPa | 0 mm | - | 659 W/m² | - |
| 1787592317 | 22.22° C | 69% | 1014.1 hPa | 0 mm | - | 661 W/m² | - |
| 1787592017 | 22.22° C | 69% | 1014.1 hPa | 0 mm | - | 642 W/m² | - |
* Rain latest hour (hover to see other rain measurements)
** Current wind speed in m/s (hover to see current wind gust speed)